This demonstration page uses our WeatherBlox Daily Observations layout. Learn more.

41.55636, -103.73856

Hourly Observations for March 17, 2015

Temp ( °F °C ) Dew Point ( °F °C ) Humidity (%) Winds ( mph kmh ) Pressure ( in mb ) Visibility ( mi km ) Precip ( " mm )
12:20 am 00:20 Cloudy 37 3 30 -1 75 75 NNE 8 13 30.5 1033 10 16.0934 0 0
12:53 am 00:53 Cloudy 36 2.2 30 -1.1 79 79 NE 9 15 30.38 1029 10 16.0934 0 0
1:53 am 01:53 Cloudy 35 1.7 29 -1.7 78 78 ENE 12 19 30.39 1029 10 16.0934 0 0
2:53 am 02:53 Cloudy 34 1.1 29 -1.7 82 82 E 13 20 30.4 1030 10 16.0934 0 0
3:53 am 03:53 Cloudy 34 1.1 28 -2.2 79 79 E 10 17 30.42 1030 10 16.0934 0 0
4:32 am 04:32 Cloudy 34 1 28 -2 81 81 E 10 17 30.56 1035 10 16.0934 0 0
4:53 am 04:53 Cloudy 33 0.6 29 -1.7 85 85 E 12 19 30.44 1031 10 16.0934 0 0
5:53 am 05:53 Cloudy 32 0 27 -2.8 82 82 E 12 19 30.47 1032 10 16.0934 0 0
6:53 am 06:53 Cloudy 32 0 27 -2.8 82 82 E 13 20 30.48 1032 10 16.0934 0 0
7:53 am 07:53 Cloudy 32 0 28 -2.2 85 85 ESE 12 19 30.5 1033 9 14.48406 0 0
8:53 am 08:53 Cloudy 33 0.6 27 -2.8 78 78 SE 13 20 30.5 1033 10 16.0934 0 0
9:34 am 09:34 Cloudy 34 1 25 -4 70 70 SE 16 26 30.53 1034 10 16.0934 0 0
9:53 am 09:53 Cloudy 33 0.6 25 -3.9 72 72 SE 17 28 30.5 1033 10 16.0934 0 0
10:22 am 10:22 Cloudy 34 1 19 -7 56 56 ESE 20 31 30.53 1034 10 16.0934 0 0
10:53 am 10:53 Cloudy 34 1.1 21 -6.1 59 59 SE 18 30 30.48 1032 10 16.0934 0 0
11:53 am 11:53 Cloudy 36 2.2 22 -5.6 57 57 SE 18 30 30.45 1031 10 16.0934 0 0
12:53 pm 12:53 Cloudy 36 2.2 20 -6.7 52 52 SE 16 26 30.43 1030 10 16.0934 0 0
1:53 pm 13:53 Partly Cloudy 41 5 15 -9.4 35 35 SE 22 35 30.35 1028 10 16.0934 0 0
2:53 pm 14:53 Sunny 44 6.7 18 -7.8 35 35 SE 20 31 30.29 1026 10 16.0934 0 0
3:53 pm 15:53 Mostly Sunny 46 7.8 18 -7.8 32 32 SE 17 28 30.23 1024 10 16.0934 0 0
4:53 pm 16:53 Sunny 48 8.9 21 -6.1 34 34 SE 16 26 30.2 1023 10 16.0934 0 0
5:53 pm 17:53 Sunny 47 8.3 20 -6.7 34 34 SE 18 30 30.18 1022 10 16.0934 0 0
6:53 pm 18:53 Sunny 43 6.1 17 -8.3 35 35 SE 13 20 30.18 1022 10 16.0934 0 0
7:53 pm 19:53 Clear 41 5 15 -9.4 35 35 ESE 14 22 30.18 1022 10 16.0934 0 0
8:53 pm 20:53 Clear 40 4.4 12 -11.1 32 32 ESE 17 28 30.17 1022 10 16.0934 0 0
9:53 pm 21:53 Clear 38 3.3 11 -11.7 33 33 ESE 17 28 30.16 1021 10 16.0934 0 0
10:53 pm 22:53 Clear 37 2.8 10 -12.2 33 33 ESE 14 22 30.14 1021 10 16.0934 0 0
11:53 pm 23:53 Clear 35 1.7 9 -12.8 34 34 ESE 13 20 30.12 1020 10 16.0934 0 0

Powered by AerisWeather